EHI
0 0 0 0 0 0 0 0 0 0 0 0 0 0 0 0 0 0 0 0 0 0 0 0 0 0 0 0 0 0 0 0 0 0 0 0 0 0 0 0 0 0 0 0
0 0 0 0 0 0 0 0 0 0 0 0 0 0 0 0 0 0 0 0 0 0 0 0 0 0 0 0 0 0 0 0 0 0 0 0 0 0 0 0 0 0 0 0
0 0 0 0 0 0 0 0 0 0 0 0 0 0 0 0 0 0 0 0 0 0 0 0 0 0 0 0 0 0 0 0 0 0 0 0 0 0 0 0 0 0 0 0
0 0 0 0 0 0 0 0 0 0 0 0 0 0 0 0 0 0 0 0 0 0 0 0 0 0 0 0 0 0 0 0 0 0 0 0 0 0 0 0 0 0 0 0
0 0 0 0 0 0 0 0 0 0 0 0 0 0 0 0 0 0 0 0 0 0 0 0 0 0 0 0 0 0 0 0 0 0 0 0 0 0 0 0 0 0 0 0
0 0 0 0 0 0 0 0 0 0 0 0 0 0 0 0 0 0 0 0 0 0 0 0 0 0 0 0 0 0 0 0 0 0 0 0 0 0 0 0 0 0 0 0
0 0 0 0 0 0 0 0 0 0 0 0 0 0 0 0 0 0 0 0 0 0 0 0 0 0 0 0 0 0 0 0 0 0 0 0 0 0 0 0 0 0 0 0
0 0 0 0 0 0 0 0 0 0 0 0 0 0 0 0 0 0 0 0 0 0 0 0 0 0 0 0 0 0 0 0 0 0 0 0 0 0 0 0 0 0 0 0
0 0 0 0 0 0 0 0 0 0 0 0 0 0 0 0 0 0 0 0 0 0 0 0 0 0 0 0 0 0 0 0 0 0 0 0 0 0 0 0 0 0 0 0
0 0 0 0 0 0 0 0 0 0 0 0 0 0 0 0 0 0 0 0 0 0 0 0 0 0 0 0 0 0 0 0 0 0 0 0 0 0 0 0 0 0 0 0
0 0 0 0 0 0 0 0 0 0 0 0 0 0 0 0 0 0 0 0 0 0 0 0 0 0 0 0 0 0 0 0 0 0 0 0 0 0 0 0 0 0 0 0
0 0 0 0 0 0 0 0 0 0 0 0 0 0 0 0 0 0 0 0 0 0 0 0 0 0 0 0 0 0 0 0 0 0 0 0 0 0 0 0 0 0 0 0
0 0 0 0 0 0 0 0 0 0 0 0 0 0 0 0 0 0 0 0 0 0 0 0 0 0 0 0 0 0 0 0 0 0 0 0 0 0 0 0 0 0 0 0
0 0 0 0 0 0 0 0 0 0 0 0 0 0 0 0 0 0 0 0 0 0 0 0 0 0 0 0 0 0 0 0 0 0 0 0 0 0 0 0 0 0 0 0
0 0 0 0 0 0 0 0 0 0 0 0 0 0 0 0 0 0 0 0 0 0 0 0 0 0 0 0 0 0 0 0 0 0 0 0 0 0 0 0 0 0 0 0
0 0 0 0 0 0 0 0 0 0 0 0 0 0 0 0 0 0 0 0 0 0 0 0 0 0 0 0 0 0 0 0 0 0 0 0 0 0 0 0 0 0 0 0
0 0 0 0 0 0 0 0 0 0 0 0 0 0 0 0 0 0 0 0 0 0 0 0 0 0 0 0 0 0 0 0 0 0 0 0 0 0 0 0 0 0 0 0
0 0 0 0 0 0 0 0 0 0 0 0 0 0 0 0 0 0 0 0 0 0 0 0 0 0 0 0 0 0 0 0 0 0 0 0 0 0 0 0 0 0 0 0
0 0 0 0 0 0 0 0 0 0 0 0 0 0 0 0 0 0 0 0 0 0 0 0 0 0 0 0 0 0 0 0 0 0 0 0 0 0 0 0 0 0 0 0
0 0 0 0 0 0 0 0 0 0 0 0 0 0 0 0 0 0 0 0 0 0 0 0 0 0 0 0 0 0 0 0 0 0 0 0 0 0 0 0 0 0 0 0
0 0 0 0 0 0 0 0 0 0 0 0 0 0 0 0 0 0 0 0 0 0 0 0 0 0 0 0 0 0 0 0 0 0 0 0 0 0 0 0 0 0 0 0
0 0 0 0 0 0 0 0 0 0 0 0 0 0 0 0 0 0 0 0 0 0 0 0 0 0 0 0 0 0 0 0 0 0 0 0 0 0 0 0 0 0 0 0
0 0 0 0 0 0 0 0 0 0 0 0 0 0 0 0 0 0 0 0 0 0 0 0 0 0 0 0 0 0 0 0 0 0 0 0 0 0 0 0 0 0 0 0
0 0 0 0 0 0 0 0 0 0 0 0 0 0 0 0 0 0 0 0 0 0 0 0 0 0 0 0 0 0 0 0 0 0 0 0 0 0 0 0 0 0 0 0
0 0 0 0 0 0 0 0 0 0 0 0 0 0 0 0 0 0 0 0 0 0 0 0 0 0 0 0 0 0 0 0 0 0 0 0 0 0 0 0 0 0 0 0
0 0 0 0 0 0 0 0 0 0 0 0 0 0 0 0 0 0 0 0 0 0 0 0 0 0 0 0 0 0 0 0 0 0 0 0 0 0 0 0 0 0 0 0
0 0 0 0 0 0 0 0 0 0 0 0 0 0 0 0 0 0 0 0 0 0 0 0 0 0 0 0 0 0 0 0 0 0 0 0 0 0 0 0 0 0 0 0
Wind_Speed
9 10 9 10 10 9 11 10 9 9 10 10 7 5 4 3 2 2 2 2 3 3 3 3 3 3 3 3 3 2 2 2 3 2 2 3 3 4 3 3 3 3 3 3
8 9 10 13 13 13 13 13 14 14 16 10 7 4 3 2 2 3 3 3 3 3 3 3 3 3 3 3 3 2 2 3 2 2 2 3 3 3 3 2 3 3 2 3
5 4 6 11 11 13 9 9 9 13 12 5 4 3 3 3 3 4 4 3 3 3 3 3 3 3 3 3 2 3 3 3 2 2 3 3 3 3 3 2 2 2 2 2
4 4 9 7 1 4 7 8 9 9 7 5 4 3 2 2 2 3 3 3 3 3 3 3 2 3 3 3 3 3 3 3 2 2 3 3 3 3 3 2 2 2 2 2
3 5 10 6 3 2 3 5 5 8 7 5 2 2 3 1 0 2 3 3 3 3 3 3 3 3 3 3 3 3 4 4 3 3 3 2 3 3 2 2 2 2 2 2
4 5 8 3 2 2 1 5 3 2 2 2 1 3 3 1 1 3 3 3 3 3 3 3 3 3 3 4 4 5 5 4 3 3 3 3 3 3 2 2 2 2 2 2
8 7 9 3 3 3 2 4 1 2 2 2 3 4 3 4 3 3 4 4 3 3 3 4 3 3 4 4 5 5 3 3 3 3 3 3 2 2 2 2 2 2 2 2
6 8 10 3 4 5 5 2 2 2 2 3 4 5 4 4 5 4 4 4 4 4 4 4 4 4 5 6 5 3 3 3 3 3 3 2 2 2 2 2 2 2 2 2
9 10 5 4 5 4 3 4 3 3 3 4 5 6 6 5 5 5 5 4 4 4 4 4 4 4 5 5 3 3 3 4 3 3 3 2 2 2 2 2 2 2 2 2
7 8 6 6 5 5 4 4 4 4 4 5 6 6 6 6 5 5 5 5 4 4 5 4 4 4 5 4 3 4 4 4 3 3 3 2 2 2 2 2 2 2 2 2
10 9 8 8 6 5 4 4 4 5 5 5 6 6 6 6 5 5 5 4 4 4 5 5 4 4 4 4 4 4 4 4 3 3 3 3 2 2 3 3 3 3 3 2
12 8 7 7 5 4 5 6 6 6 6 6 5 6 6 6 5 5 5 4 4 5 5 5 4 4 4 4 4 4 4 4 3 3 3 2 2 2 4 4 4 4 3 3
11 9 8 9 7 6 6 5 5 5 6 6 5 5 6 5 5 4 5 5 5 5 5 4 4 4 4 4 4 5 4 4 3 3 3 3 2 2 2 3 5 5 5 5
9 8 9 8 7 5 5 5 4 5 5 5 5 5 5 5 5 5 5 5 4 4 5 4 4 5 4 4 5 5 4 4 4 3 3 3 3 3 2 2 2 2 4 7
7 6 7 6 5 5 4 4 4 5 5 5 5 5 5 5 6 6 5 4 4 4 5 4 5 5 3 4 5 5 4 3 3 3 3 3 3 3 2 3 3 2 1 3
5 5 5 5 6 5 5 5 5 6 5 5 5 5 5 5 6 5 5 4 4 5 5 5 5 5 3 4 5 4 4 6 5 3 3 3 3 3 3 3 3 3 3 2
4 4 4 5 6 6 6 6 6 5 5 5 6 5 5 5 6 6 5 4 5 5 5 5 5 4 4 4 5 4 3 4 6 3 3 3 3 3 3 3 3 3 3 3
4 5 5 6 6 7 7 6 5 5 5 5 5 5 5 6 7 7 5 4 4 5 5 4 4 4 3 4 4 3 3 3 3 4 3 3 3 3 3 3 3 4 3 3
4 5 5 5 6 6 6 6 5 5 5 4 4 6 6 7 6 6 4 4 4 5 5 4 4 3 3 4 4 3 3 3 3 3 3 5 4 3 3 4 4 3 3 2
4 5 5 5 5 5 5 5 5 5 4 4 5 5 6 6 5 5 4 5 5 5 4 3 3 3 3 4 5 3 4 4 4 3 3 4 4 4 4 4 4 4 3 3
5 5 5 5 5 5 5 5 4 5 5 4 5 6 6 6 5 4 4 5 5 4 4 4 3 2 3 3 4 3 4 4 4 4 4 4 4 4 4 4 4 4 3 3
5 5 6 6 6 6 5 4 5 5 6 5 6 5 5 5 5 4 5 5 5 4 3 2 2 4 4 4 3 3 4 4 4 4 4 4 4 4 4 4 4 4 3 3
6 6 6 6 6 6 6 6 5 5 6 6 6 6 6 5 4 4 5 4 3 4 3 3 4 6 6 3 3 3 4 4 4 4 4 4 4 4 4 4 4 4 3 3
6 6 7 6 6 6 8 8 6 6 6 6 6 6 5 4 4 4 4 5 6 5 3 5 7 7 5 3 3 3 4 4 4 3 3 3 3 3 4 4 4 3 4 4
7 7 7 7 7 7 7 6 6 6 6 5 6 5 4 4 5 4 3 4 6 5 3 5 7 7 4 3 3 3 3 4 4 4 4 3 3 3 4 4 4 4 4 4
7 7 7 7 7 6 5 5 5 5 5 5 5 4 3 3 4 4 3 4 5 5 4 3 3 4 3 3 3 4 3 4 4 4 4 4 4 4 4 4 5 4 4 4
7 6 6 6 6 5 5 5 6 6 5 5 6 4 4 3 3 3 4 3 3 3 3 3 3 3 3 3 3 3 3 3 3 3 3 4 4 4 4 4 4 3 3 4
Wind_Direction
267 277 275 262 252 236 230 229 236 252 259 268 276 281 278 260 259 269 266 252 243 243 238 229 220 211 205 203 195 201 218 239 256 266 278 293 295 297 300 301 305 306 307 308
273 257 257 262 252 242 241 240 246 262 271 269 276 273 272 271 269 273 271 267 264 260 258 247 235 223 211 205 199 198 217 236 253 263 277 283 290 299 295 293 297 300 306 312
269 277 294 264 239 224 222 222 225 243 252 271 275 269 264 270 273 269 270 270 266 258 253 254 239 219 213 207 198 201 218 234 243 252 266 273 287 300 283 281 289 297 302 305
277 298 251 242 209 202 221 236 231 246 261 268 269 278 285 276 276 283 284 280 269 257 253 249 238 219 205 193 197 209 220 234 240 249 262 272 281 287 277 279 276 284 292 297
253 264 273 265 232 202 228 264 242 247 261 274 312 321 289 252 237 284 289 282 271 263 258 245 231 213 196 200 204 211 223 231 235 239 253 264 272 274 265 271 276 277 283 293
241 251 255 261 108 77 61 273 293 289 284 299 333 284 271 326 318 293 290 286 280 273 264 248 236 206 198 208 210 218 223 226 230 230 237 249 260 263 254 258 262 269 281 282
235 249 263 265 140 121 194 248 1 358 313 296 250 248 277 310 300 281 276 276 274 266 254 243 233 209 212 218 224 224 213 210 220 226 232 243 254 259 248 245 256 260 269 275
205 228 251 192 145 196 233 283 299 300 299 289 283 287 293 297 292 287 279 274 267 260 256 245 227 214 222 230 230 211 199 207 218 221 228 234 240 250 233 216 234 256 262 274
208 224 244 187 215 244 280 287 286 289 295 283 282 283 284 283 281 278 274 270 265 259 261 252 230 212 224 234 214 199 200 210 218 218 221 221 224 238 240 218 219 244 248 257
262 261 267 265 264 266 265 270 284 284 282 278 274 279 282 282 280 278 273 270 267 265 262 259 242 226 227 224 197 193 207 215 212 212 224 224 225 227 227 223 221 228 235 244
264 272 281 266 260 265 275 280 282 281 273 270 272 275 277 281 281 280 279 273 262 258 259 259 252 238 224 206 187 197 210 215 215 214 216 221 224 231 230 229 221 218 225 222
258 261 263 273 278 279 273 266 262 266 274 271 262 266 272 275 275 277 278 275 270 266 263 261 254 247 228 203 191 196 211 215 210 208 212 215 218 249 251 240 248 241 235 231
263 270 269 275 276 275 270 266 261 260 265 272 267 262 268 272 274 274 273 270 267 268 267 264 257 251 233 203 192 199 211 213 209 207 209 211 212 220 252 261 253 253 249 251
264 269 270 270 273 275 271 269 265 266 264 265 268 270 270 272 276 274 272 269 268 271 269 259 253 248 231 201 196 205 209 213 211 209 208 209 213 218 224 233 248 260 251 248
265 266 270 279 281 281 276 270 269 267 266 268 263 263 266 270 272 272 273 273 274 271 267 258 254 251 230 203 200 206 206 208 208 207 206 208 210 213 219 231 240 248 252 249
274 277 274 272 274 277 274 268 265 268 269 268 268 268 266 266 270 273 270 261 260 264 264 259 257 254 229 207 204 207 211 218 210 202 204 207 207 210 217 223 231 235 238 237
271 271 267 270 270 270 265 261 259 264 269 270 271 274 276 275 275 273 269 264 260 261 260 256 259 254 230 211 205 208 208 213 211 206 207 208 208 212 217 221 228 234 239 232
253 256 255 257 264 270 271 268 262 261 262 266 271 273 269 264 264 269 273 275 274 274 267 256 251 242 228 216 208 207 204 204 204 207 209 211 214 213 215 220 227 233 244 246
276 270 271 274 274 272 269 270 270 268 268 264 263 263 262 260 260 264 266 262 259 267 270 255 247 232 228 223 213 205 204 205 209 212 210 221 225 216 215 221 226 227 228 230
281 279 277 280 282 279 276 277 274 272 269 262 262 266 269 267 260 258 257 254 247 244 247 249 249 239 230 225 215 201 200 203 209 212 210 212 216 218 218 221 225 226 226 226
278 279 278 278 280 279 272 269 267 268 269 261 259 261 266 269 263 252 250 265 266 239 236 242 237 234 230 223 213 203 202 203 206 210 212 214 216 218 218 219 223 226 228 229
278 278 278 277 277 281 278 269 264 265 268 266 263 262 263 265 264 261 250 248 254 241 235 232 233 235 237 233 212 209 209 209 211 211 212 213 213 218 221 220 223 226 225 227
277 273 274 275 273 276 278 273 266 264 264 262 259 256 254 254 247 249 265 252 231 232 229 231 238 242 247 238 214 212 213 213 214 214 215 215 215 217 221 222 223 222 222 225
273 273 272 272 271 271 272 272 267 263 260 259 255 250 246 254 260 247 243 245 239 240 236 237 243 247 250 231 212 211 214 217 218 216 214 214 216 219 221 221 224 225 224 224
268 268 268 267 265 263 262 263 267 266 260 259 258 253 244 237 243 248 236 233 234 240 241 241 243 245 240 219 212 212 214 219 219 215 213 215 218 221 224 223 224 225 226 227
262 261 261 258 256 258 258 256 259 260 255 260 264 257 247 242 239 239 234 231 231 236 237 236 233 234 225 218 217 215 217 223 229 226 219 218 220 224 226 225 223 225 226 228
260 260 261 264 261 252 249 248 251 254 249 248 259 255 242 239 236 233 232 230 229 229 229 229 224 224 223 220 219 218 217 217 217 218 219 221 222 225 224 223 227 228 224 224